Regional Weather Roundup
Issued by NWS

Home | Current Version | Previous Version | Graphics & Text | Print | Product List | Glossary Off
Versions: 1 2 3 4 5 6 7 8 9 10 11 12 13 14 15 16 17 18 19 20 21 22 23 24 25 26 27 28 29 30 31 32 33 34 35 36 37 38 39 40 41 42 43 44 45 46 47 48 49 50

000
ASUS43 KMKX 231421
RWRWI

WISCONSIN REGIONAL WEATHER ROUNDUP
NATIONAL WEATHER SERVICE MILWAUKEE/SULLIVAN WI
800 AM CST THU FEB 23 2017

NOTE: "FAIR" INDICATES FEW OR NO CLOUDS BELOW 12,000 FEET WITH NO
SIGNIFICANT WEATHER AND/OR OBSTRUCTIONS TO VISIBILITY.

WIZ001-002-006>008-014>016-023>028-231500-
NORTHWEST WISCONSIN

CITY           SKY/WX    TMP DP  RH WIND       PRES   REMARKS
SUPERIOR ARPT  CLOUDY    29  24  82 NW7       29.95R WCI  21
ASHLAND        PTCLDY    28  24  85 NW7       29.91R WCI  21
HAYWARD        CLOUDY    31  25  78 N8        29.89R WCI  23
SIREN          PTCLDY    28  25  89 N7        29.93R WCI  20
CUMBERLAND     CLOUDY    30  27  86 N12       29.89R WCI  21
RICE LAKE      CLOUDY    32  28  86 N12       29.90S WCI  23
CHETEK         CLOUDY    32  28  86 N5        29.88S WCI  27
LADYSMITH      LGT SNOW  33  30  90 N7        29.88S WCI  27
EAU CLAIRE     CLOUDY    36  29  75 NE6       29.86S WCI  31
MENOMONIE      CLOUDY    35  29  81 N9        29.88R WCI  27
NEW RICHMOND   CLOUDY    32  27  81 N12       29.90R WCI  23
OSCEOLA        CLOUDY    31  27  84 N6        29.94S WCI  25
$$

WIZ003>005-009-010-017-018-231500-
NORTH CENTRAL WISCONSIN

CITY           SKY/WX    TMP DP  RH WIND       PRES   REMARKS
MANITOWISH WTR CLOUDY    29  29 100 N6        29.82S WCI  23
ARBOR VITAE    CLOUDY    32  30  92 N5          N/A  WCI  27
WOODRUFF       CLOUDY    32  30  92 N5          N/A  WCI  27
RHINELANDER    CLOUDY    31  27  85 N5        29.84R WCI  26
EAGLE RIVER    CLOUDY    29  27  92 N8        29.81R WCI  21
LAND O LAKES   PTSUNNY   29  26  89 N7        29.83S WCI  22
PHILLIPS       CLOUDY    31  28  91 N8        29.86R WCI  23
TOMAHAWK       LGT SNOW  31  28  89 N3        29.86R
MEDFORD        CLOUDY    32  28  85 N7        29.84R WCI  26
MERRILL        NOT AVBL
$$

WIZ029-030-035-036-043>047-231500-
CENTRAL WISCONSIN

CITY           SKY/WX    TMP DP  RH WIND       PRES   REMARKS
WAUSAU         CLOUDY    34  27  75 N9        29.83R WCI  27
MOSINEE        PTSUNNY   34  30  86 N13G18    29.85R WCI  25
MARSHFIELD     CLOUDY    34  27  75 NE14G20   29.81S WCI  25
STEVENS POINT  CLOUDY    33  28  81 N12       29.84R WCI  24
WAUPACA        MOSUNNY   39  32  74 N9        29.84R WCI  33
WAUTOMA        CLOUDY    38  32  79 N9        29.83R WCI  31
WISC RAPIDS    CLOUDY    36  30  79 N12G20    29.83S WCI  28
CAMP DOUGLAS   MOSUNNY   37  32  81 N9        29.84R WCI  31
$$

WIZ011>013-019>022-031-037>040-048>050-231500-
NORTHEAST WISCONSIN

CITY           SKY/WX    TMP DP  RH WIND       PRES   REMARKS
ANTIGO         CLOUDY    30  27  88 N13       29.83R WCI  20
SHAWANO        CLOUDY    39  32  75 N5        29.85R
OCONTO         CLOUDY    36  29  78 N8        29.84R WCI  29
STURGEON BAY   CLOUDY    35  30  82 N14       29.83R WCI  26
GREEN BAY      CLOUDY    39  33  79 N10       29.82R WCI  32
MANITOWOC      CLOUDY    38  33  82 N8        29.81R WCI  32
APPLETON       PTSUNNY   37  30  75 N7        29.79R WCI  32
CLINTONVILLE   CLOUDY    37  30  75 N6        29.84R WCI  33
OSHKOSH        CLOUDY    40  34  79 N9        29.81R WCI  34
$$

WIZ032>034-041-042-053>061-231500-
SOUTHWEST WISCONSIN

CITY           SKY/WX    TMP DP  RH WIND       PRES   REMARKS
LA CROSSE      CLOUDY    41  31  67 N5        29.86R
SPARTA         MOSUNNY   39  32  76 N7        29.87R WCI  34
VIROQUA        CLOUDY    38  33  82 N7        29.84R WCI  32
BOSCOBEL       CLOUDY    42  33  70 N10       29.83R
PRAIRIE DU CHI CLOUDY    41  32  70 N7        29.84R
PLATTEVILLE    PTSUNNY   42  39  91 N15       29.79F
$$

WIZ056-057-062-063-064-067-068-231500-
SOUTH CENTRAL WISCONSIN

CITY           SKY/WX    TMP DP  RH WIND       PRES   REMARKS
REEDSBURG      CLOUDY    38  32  78 N13       29.82R WCI  30
BARABOO/DELLS  CLOUDY    39  32  77 N7        29.82R WCI  34
LONE ROCK      CLOUDY    41  33  73 N8        29.83R
MINERAL POINT  CLOUDY    41  37  87 N10       29.80R
MADISON        CLOUDY    40  35  83 N10       29.80R WCI  33
MIDDLETON      CLOUDY    42  37  82 N13       29.82R
WATERTOWN      CLOUDY    41  41 100 N8G16     29.79R
MONROE         PTSUNNY   43  37  81 N8        29.78R
JANESVILLE     PTSUNNY   45  43  93 NW6       29.77R
$$

WIZ051-052-058>065-066-070>072-231500-
SOUTHEAST WISCONSIN

CITY           SKY/WX    TMP DP  RH WIND       PRES   REMARKS
MILWAUKEE      CLOUDY    42  38  85 NE16      29.77R FOG
WAUKESHA       CLOUDY    43  37  81 NW16      29.77R
MILWAUKEE/TIMM CLOUDY    45  37  76 N8        29.79R
RACINE         CLOUDY    42  37  82 NE14G22   29.79R HAZE
KENOSHA        PTSUNNY   46  40  79 N5        29.76R
FOND DU LAC    CLOUDY    40  34  79 N12       29.81R WCI  33
SHEBOYGAN      NOT AVBL
WEST BEND      CLOUDY    41  37  87 NE8       29.80R
JUNEAU         CLOUDY    39  37  93 N9        29.82R FOG     WCI  33
$$

LSZ147-162-231500-
LAKE SUPERIOR

STATION/POSITION TIME  TEMP    WIND        PRES    WAVE
                       AIR SEA DIR/SP/G            HT/PER
                 (UTC) (F)     (DEG/KT/KT) (MB)    (FT/S)
DEVILS ISLAND    1400   31     310/  9/ 13 1014.1R
PORT WING        1340   31     350/ 10/ 15 1013.5S
SAXON HARBOR     1340   33     320/ 10/ 11 1012.5R
$$

LMZ867-665-643>646-231500-
LAKE MICHIGAN

STATION/POSITION TIME  TEMP    WIND        PRES    WAVE
                       AIR SEA DIR/SP/G            HT/PER
                 (UTC) (F)     (DEG/KT/KT) (MB)    (FT/S)
CHAMBERS ISLAND  1340   35     320/ 12/ 14 1009.5R
NORTHPORT PIER   1340   34     330/ 16/ 21 1009.5R
SISTER BAY       1335   35     340/ 16/ 21   N/A
KEWAUNEE LAKESHO 1354   37     350/  8/ 11 1008.7R
SHEBOYGAN LAKESH 1400   39     340/ 14/ 17 1009.2R
PORT WASHINGTON  1340   42     340/  5/  9 1009.5R
MILWAUKEE LAKESH 1400   39      30/ 12/ 13   N/A
KENOSHA   LAKESH 1400   45      10/  8/ 12 1008.5
$$

TC  - TEMPERATURE IN CELSIUS
VSB - VISIBILITY IN STATUTE MILES
WCI - WIND CHILL INDEX
HX  - HEAT INDEX





USA.gov is the U.S. government's official web portal to all federal, state and local government web resources and services.